Regional Weather Roundup
Issued by NWS

Home | Current Version | Previous Version | Graphics & Text | Print | Product List | Glossary On
Versions: 1 2 3 4 5 6 7 8 9 10 11 12 13 14 15 16 17 18 19 20 21 22 23 24 25 26 27 28 29 30 31 32 33 34 35 36 37 38 39 40 41 42 43 44 45 46 47 48 49 50
267
ASUS45 KCYS 182210
RWRWY

WYOMING REGIONAL WEATHER ROUNDUP
NATIONAL WEATHER SERVICE CHEYENNE WY
400 PM MDT MON SEP 18 2017

NOTE:  "FAIR" INDICATES FEW OR NO CLOUDS BELOW 12,000 FEET
WITH NO SIGNIFICANT WEATHER AND/OR OBSTRUCTIONS TO VISIBILITY.

WYZ001-182300-
YELLOWSTONE NATIONAL PARK

CITY           SKY/WX    TMP DP  RH WIND       PRES   REMARKS
LK YELLOWSTONE   N/A     53  28  38 SW8G18    29.91F
W YELLOWSTONE  NOT AVBL

$$
WYZ002>013-054>058-071-098>099-182300-
NORTHERN WYOMING

CITY           SKY/WX    TMP DP  RH WIND       PRES   REMARKS
JACKSON        NOT AVBL
CODY           FAIR      72  31  22 W6        29.73
GREYBULL       FAIR      76  38  25 SE18G26   29.67F
WORLAND        FAIR      77  33  20 S18G24    29.71F
SHERIDAN       FAIR      75  37  25 SE10      29.70F
BUFFALO        FAIR      76  24  14 S15       29.78F
GILLETTE       FAIR      76  28  17 S16       29.76F
HULETT         FAIR      79  28  15 SW16G23   29.78F
NEWCASTLE      FAIR      75  30  19 E7        29.81F

$$
WYZ014>020-022>026-101>103-182300-
CENTRAL WYOMING

CITY           SKY/WX    TMP DP  RH WIND       PRES   REMARKS
BIG PINEY      PTSUNNY   66  30  26 W22G30    29.95F
PINEDALE       NOT AVBL
DUBOIS         MOCLDY    59  28  31 W18G38    29.90S
LANDER         NOT AVBL
RIVERTON       FAIR      74  29  19 SW8       29.81F
CASPER         LGT RAIN  76  26  15 SW28G43   29.83F
DOUGLAS        FAIR      78  28  16 SW18G28   29.84F

$$
WYZ021-027>030-104>119-182300-
SOUTHERN WYOMING

CITY           SKY/WX    TMP DP  RH WIND       PRES   REMARKS
EVANSTON       FAIR      70  31  23 SW29G36   29.96F
KEMMERER         N/A     68  27  21 SW29G35   29.96F
FORT BRIDGER   FAIR      73  25  16 W21G30    29.98F
ROCK SPRINGS   CLOUDY    68  25  19 SW10      29.95F
DIXON          FAIR      74  27  17 SW14G20   30.01F
RAWLINS        FAIR      72  27  18 SW26G36   29.98F
SARATOGA       FAIR      72  25  17 SW18G25   30.02F
LARAMIE        FAIR      70  25  18 W18G25    30.03F
CHEYENNE       PTSUNNY   75  27  17 SW12      29.97F
TORRINGTON     NOT AVBL
PINE BLUFFS    FAIR      79  28  15 S12G21    29.93F

$$




USA.gov is the U.S. government's official web portal to all federal, state and local government web resources and services.